ANA811 ROAH-RJTT

Flight info

Callsign ANA811
Flight time 1h 54m
Altitude 33000
Route AMAMI Y52 TONAR Y293 YULIA Y57 SUKBO Y571 BILLY Y21 AKSEL
Aircraft B772/H-SDE2E3GHIJ1J3J4J5LM1ORWXYZ/LB2

Departure

Time 2026-04-16 12:59
Airport Naha International Airport (ROAH)

Arrival

Time 2026-04-16 14:53
Airport Tokyo Haneda International Airport (RJTT)
Time Latitude Longitude Altitude Speed Heading
2026-04-16 12:26 26.20772 127.64818 19 ft 0 kts 87°
2026-04-16 12:39 26.20772 127.64817 19 ft 0 kts 87°
2026-04-16 12:40 26.20771 127.64803 19 ft 2 kts 77°
2026-04-16 12:40 26.20766 127.64786 19 ft 2 kts 64°
2026-04-16 12:40 26.20759 127.64772 19 ft 2 kts 52°
2026-04-16 12:40 26.20748 127.64761 19 ft 2 kts 40°
2026-04-16 12:41 26.20736 127.64751 19 ft 2 kts 27°
2026-04-16 12:41 26.20722 127.64745 19 ft 2 kts 15°
2026-04-16 12:41 26.20707 127.64741 19 ft 2 kts
2026-04-16 12:41 26.20699 127.64741 19 ft 1 kts 357°
2026-04-16 12:44 26.20723 127.64740 19 ft 7 kts 357°
2026-04-16 12:44 26.20761 127.64738 19 ft 11 kts 358°
2026-04-16 12:45 26.20863 127.64735 19 ft 15 kts 358°
2026-04-16 12:45 26.20968 127.64696 19 ft 17 kts 303°
2026-04-16 12:45 26.20976 127.64639 19 ft 0 kts 266°
2026-04-16 12:49 26.20976 127.64632 19 ft 2 kts 266°
2026-04-16 12:49 26.20974 127.64595 19 ft 6 kts 266°
2026-04-16 12:49 26.20973 127.64581 19 ft 0 kts 265°
2026-04-16 12:49 26.20977 127.64631 19 ft 0 kts 265°
2026-04-16 12:57 26.20977 127.64630 19 ft 0 kts 265°
2026-04-16 12:58 26.20969 127.64590 19 ft 9 kts 249°
2026-04-16 12:58 26.20912 127.64533 19 ft 12 kts 197°
2026-04-16 12:58 26.20820 127.64529 19 ft 8 kts 178°
2026-04-16 12:58 26.20804 127.64530 19 ft 14 kts 177°
2026-04-16 12:59 26.20449 127.64546 19 ft 98 kts 178°
2026-04-16 12:59 26.19456 127.64606 90 ft 180 kts 174°
2026-04-16 12:59 26.18084 127.64690 769 ft 213 kts 174°
2026-04-16 13:00 26.14974 127.64848 2643 ft 227 kts 177°
2026-04-16 13:00 26.13371 127.64911 3310 ft 238 kts 177°
2026-04-16 13:00 26.11685 127.64986 3899 ft 249 kts 178°
2026-04-16 13:00 26.09898 127.65067 4478 ft 261 kts 178°
2026-04-16 13:01 26.08076 127.65147 5054 ft 267 kts 179°
2026-04-16 13:01 26.06213 127.65228 5620 ft 272 kts 179°
2026-04-16 13:01 26.04327 127.65434 6177 ft 275 kts 166°
2026-04-16 13:01 26.02600 127.66432 6722 ft 281 kts 139°
2026-04-16 13:02 26.01442 127.68135 7255 ft 284 kts 112°
2026-04-16 13:02 26.01035 127.70255 7810 ft 285 kts 90°
2026-04-16 13:02 26.01070 127.72443 8357 ft 286 kts 82°
2026-04-16 13:02 26.01463 127.74223 8809 ft 285 kts 62°
2026-04-16 13:03 26.02506 127.76019 9351 ft 284 kts 49°
2026-04-16 13:03 26.03712 127.77683 9892 ft 285 kts 47°
2026-04-16 13:03 26.04970 127.79384 10442 ft 287 kts 47°
2026-04-16 13:03 26.05927 127.80685 10859 ft 291 kts 47°
2026-04-16 13:04 26.07226 127.82459 11424 ft 298 kts 47°
2026-04-16 13:04 26.08566 127.84289 11996 ft 314 kts 47°
2026-04-16 13:04 26.09979 127.86224 12573 ft 330 kts 47°
2026-04-16 13:04 26.11460 127.88251 13144 ft 345 kts 47°
2026-04-16 13:05 26.12998 127.90361 13714 ft 360 kts 48°
2026-04-16 13:05 26.14600 127.92559 14282 ft 374 kts 48°
2026-04-16 13:05 26.16318 127.94801 14845 ft 385 kts 42°
2026-04-16 13:05 26.18378 127.96710 15395 ft 388 kts 31°
2026-04-16 13:06 26.20670 127.98312 15949 ft 392 kts 28°
2026-04-16 13:06 26.23012 127.99888 16494 ft 394 kts 28°
2026-04-16 13:06 26.25379 128.01482 17033 ft 398 kts 28°
2026-04-16 13:06 26.27755 128.03084 17576 ft 402 kts 28°
2026-04-16 13:07 26.30153 128.04703 18123 ft 406 kts 27°
2026-04-16 13:07 26.32596 128.06355 18686 ft 410 kts 27°
2026-04-16 13:07 26.35046 128.08012 19242 ft 413 kts 27°
2026-04-16 13:07 26.37496 128.09670 19789 ft 418 kts 27°
2026-04-16 13:08 26.40004 128.11369 20335 ft 423 kts 27°
2026-04-16 13:08 26.42546 128.13091 20885 ft 427 kts 27°
2026-04-16 13:08 26.45113 128.14831 21433 ft 432 kts 27°
2026-04-16 13:08 26.47701 128.16589 21981 ft 436 kts 27°
2026-04-16 13:09 26.50328 128.18372 22532 ft 441 kts 26°
2026-04-16 13:09 26.52937 128.20145 23083 ft 443 kts 27°
2026-04-16 13:09 26.55587 128.21945 23639 ft 449 kts 27°
2026-04-16 13:09 26.58293 128.23787 24215 ft 451 kts 27°
2026-04-16 13:10 26.60988 128.25621 24792 ft 455 kts 26°
2026-04-16 13:10 26.63680 128.27454 25364 ft 459 kts 26°
2026-04-16 13:10 26.66422 128.29356 25944 ft 463 kts 30°
2026-04-16 13:10 26.68967 128.31656 26526 ft 474 kts 39°
2026-04-16 13:11 26.71174 128.34374 27099 ft 482 kts 47°
2026-04-16 13:11 26.73290 128.37328 27686 ft 486 kts 47°
2026-04-16 13:11 26.75407 128.40315 28270 ft 490 kts 47°
2026-04-16 13:11 26.77534 128.43320 28856 ft 493 kts 47°
2026-04-16 13:12 26.79644 128.46298 29429 ft 496 kts 47°
2026-04-16 13:12 26.81794 128.49333 30009 ft 498 kts 47°
2026-04-16 13:12 26.83960 128.52393 30591 ft 501 kts 47°
2026-04-16 13:12 26.86149 128.55484 31181 ft 502 kts 47°
2026-04-16 13:13 26.88303 128.58528 31761 ft 503 kts 47°
2026-04-16 13:13 26.90500 128.61624 32346 ft 504 kts 45°
2026-04-16 13:13 26.92885 128.64438 32872 ft 500 kts 37°
2026-04-16 13:14 26.98638 128.68851 32973 ft 508 kts 23°
2026-04-16 13:14 27.04991 128.72672 32970 ft 527 kts 22°
2026-04-16 13:15 27.11562 128.76634 32970 ft 541 kts 23°
2026-04-16 13:15 27.18264 128.80696 32977 ft 546 kts 23°
2026-04-16 13:16 27.24911 128.84738 32974 ft 546 kts 23°
2026-04-16 13:16 27.31534 128.88773 32976 ft 546 kts 23°
2026-04-16 13:17 27.38249 128.92870 32977 ft 546 kts 23°
2026-04-16 13:17 27.44938 128.96957 32983 ft 547 kts 23°
2026-04-16 13:18 27.51542 129.00998 32983 ft 547 kts 23°
2026-04-16 13:18 27.58262 129.05116 32986 ft 547 kts 23°
2026-04-16 13:19 27.64824 129.09143 32990 ft 548 kts 23°
2026-04-16 13:19 27.71537 129.13269 32989 ft 548 kts 23°
2026-04-16 13:20 27.78186 129.17360 32992 ft 548 kts 23°
2026-04-16 13:20 27.84879 129.21484 32992 ft 548 kts 23°
2026-04-16 13:21 27.91539 129.25595 32994 ft 548 kts 23°
2026-04-16 13:21 27.98285 129.29764 32994 ft 548 kts 23°
2026-04-16 13:22 28.04972 129.33903 32998 ft 548 kts 23°
2026-04-16 13:22 28.11661 129.38049 32991 ft 547 kts 23°
2026-04-16 13:23 28.18376 129.42217 32995 ft 547 kts 23°
2026-04-16 13:23 28.25063 129.46374 33001 ft 547 kts 23°
2026-04-16 13:24 28.31750 129.50537 32994 ft 547 kts 23°
2026-04-16 13:24 28.37833 129.55618 33001 ft 559 kts 39°
2026-04-16 13:25 28.42721 129.62677 33005 ft 571 kts 56°
2026-04-16 13:25 28.45805 129.71002 32991 ft 578 kts 73°
2026-04-16 13:26 28.47046 129.80025 32997 ft 582 kts 83°
2026-04-16 13:26 28.47908 129.89215 32999 ft 582 kts 82°
2026-04-16 13:27 28.48812 129.98370 33006 ft 582 kts 82°
2026-04-16 13:27 28.49786 130.07555 32999 ft 581 kts 78°
2026-04-16 13:28 28.52100 130.16208 33002 ft 574 kts 62°
2026-04-16 13:28 28.56164 130.23962 33012 ft 568 kts 51°
2026-04-16 13:29 28.60647 130.31355 33012 ft 568 kts 51°
2026-04-16 13:29 28.65133 130.38765 33010 ft 568 kts 51°
2026-04-16 13:30 28.69601 130.46162 33008 ft 567 kts 51°
2026-04-16 13:30 28.71841 130.49881 33200 ft 563 kts 51°
2026-04-16 13:30 28.74033 130.53523 33553 ft 554 kts 51°
2026-04-16 13:30 28.76178 130.57088 33916 ft 548 kts 51°
2026-04-16 13:31 28.78341 130.60681 34285 ft 548 kts 51°
2026-04-16 13:31 28.80517 130.64298 34656 ft 550 kts 51°
2026-04-16 13:31 28.82685 130.67905 35012 ft 552 kts 52°
2026-04-16 13:31 28.84841 130.71497 35364 ft 553 kts 51°
2026-04-16 13:32 28.87034 130.75153 35726 ft 554 kts 52°
2026-04-16 13:32 28.89187 130.78746 36082 ft 554 kts 52°
2026-04-16 13:32 28.91396 130.82436 36430 ft 554 kts 51°
2026-04-16 13:32 28.93573 130.86078 36793 ft 553 kts 51°
2026-04-16 13:33 28.95743 130.89708 37006 ft 556 kts 51°
2026-04-16 13:33 29.00139 130.97072 37012 ft 564 kts 52°
2026-04-16 13:34 29.04595 131.04553 37012 ft 569 kts 51°
2026-04-16 13:34 29.09081 131.12100 37016 ft 570 kts 52°
2026-04-16 13:35 29.13504 131.19553 37016 ft 570 kts 51°
2026-04-16 13:35 29.17940 131.27042 37019 ft 571 kts 51°
2026-04-16 13:36 29.22420 131.34619 37019 ft 571 kts 52°
2026-04-16 13:36 29.26899 131.42209 37023 ft 571 kts 51°
2026-04-16 13:37 29.31346 131.49756 37025 ft 572 kts 52°
2026-04-16 13:37 29.35807 131.57342 37026 ft 572 kts 51°
2026-04-16 13:38 29.40277 131.64961 37029 ft 573 kts 51°
2026-04-16 13:38 29.44726 131.72559 37013 ft 573 kts 52°
2026-04-16 13:39 29.49165 131.80158 37017 ft 573 kts 52°
2026-04-16 13:39 29.53583 131.87730 37020 ft 573 kts 51°
2026-04-16 13:40 29.58028 131.95364 37023 ft 574 kts 51°
2026-04-16 13:40 29.62455 132.02982 37026 ft 574 kts 52°
2026-04-16 13:41 29.67077 132.10440 37034 ft 570 kts 46°
2026-04-16 13:41 29.72109 132.17496 37028 ft 569 kts 45°
2026-04-16 13:42 29.77162 132.24571 37032 ft 569 kts 45°
2026-04-16 13:42 29.82183 132.31622 37036 ft 570 kts 45°
2026-04-16 13:43 29.87229 132.38724 37036 ft 570 kts 45°
2026-04-16 13:43 29.92235 132.45784 37040 ft 570 kts 45°
2026-04-16 13:44 29.97262 132.52890 37043 ft 570 kts 45°
2026-04-16 13:44 30.02276 132.59988 37044 ft 569 kts 45°
2026-04-16 13:45 30.07272 132.67075 37031 ft 571 kts 45°
2026-04-16 13:45 30.12274 132.74184 37031 ft 570 kts 45°
2026-04-16 13:46 30.17246 132.81262 37030 ft 570 kts 45°
2026-04-16 13:46 30.22304 132.88475 37034 ft 571 kts 45°
2026-04-16 13:47 30.27343 132.95673 37036 ft 571 kts 45°
2026-04-16 13:47 30.32335 133.02820 37039 ft 572 kts 45°
2026-04-16 13:48 30.37353 133.10014 37042 ft 572 kts 45°
2026-04-16 13:48 30.42374 133.17229 37046 ft 571 kts 45°
2026-04-16 13:49 30.47365 133.24411 37049 ft 571 kts 45°
2026-04-16 13:49 30.52371 133.31628 37052 ft 571 kts 45°
2026-04-16 13:50 30.57384 133.38869 37052 ft 572 kts 45°
2026-04-16 13:50 30.62374 133.46089 37056 ft 572 kts 45°
2026-04-16 13:51 30.67340 133.53290 37057 ft 571 kts 45°
2026-04-16 13:51 30.72307 133.60503 37062 ft 570 kts 44°
2026-04-16 13:52 30.77265 133.67717 37043 ft 572 kts 45°
2026-04-16 13:52 30.82266 133.75006 37046 ft 571 kts 45°
2026-04-16 13:53 30.87244 133.82272 37050 ft 571 kts 45°
2026-04-16 13:53 30.92215 133.89540 37049 ft 570 kts 45°
2026-04-16 13:54 30.97150 133.96768 37053 ft 572 kts 45°
2026-04-16 13:54 31.02057 134.03970 37054 ft 572 kts 45°
2026-04-16 13:55 31.07008 134.11250 37058 ft 572 kts 45°
2026-04-16 13:55 31.11947 134.18526 37061 ft 572 kts 45°
2026-04-16 13:56 31.16872 134.25795 37064 ft 572 kts 45°
2026-04-16 13:56 31.21819 134.33109 37064 ft 572 kts 45°
2026-04-16 13:57 31.26757 134.40424 37073 ft 572 kts 45°
2026-04-16 13:57 31.31686 134.47742 37076 ft 571 kts 45°
2026-04-16 13:58 31.39071 134.58728 37079 ft 570 kts 44°
2026-04-16 13:58 31.43981 134.66049 37073 ft 570 kts 45°
2026-04-16 13:59 31.48858 134.73335 37058 ft 570 kts 45°
2026-04-16 13:59 31.53758 134.80672 37064 ft 570 kts 45°
2026-04-16 14:00 31.58628 134.87975 37065 ft 570 kts 45°
2026-04-16 14:00 31.63521 134.95328 37062 ft 570 kts 45°
2026-04-16 14:01 31.68424 135.02708 37064 ft 570 kts 45°
2026-04-16 14:01 31.73304 135.09978 37063 ft 564 kts 41°
2026-04-16 14:02 31.78577 135.16792 37072 ft 564 kts 40°
2026-04-16 14:02 31.83912 135.23659 37073 ft 564 kts 39°
2026-04-16 14:03 31.89186 135.30498 37073 ft 564 kts 40°
2026-04-16 14:03 31.94479 135.37393 37078 ft 567 kts 40°
2026-04-16 14:04 31.99763 135.44305 37079 ft 565 kts 40°
2026-04-16 14:04 32.05056 135.51245 37085 ft 567 kts 40°
2026-04-16 14:05 32.10268 135.58099 37087 ft 565 kts 40°
2026-04-16 14:05 32.15515 135.65015 37098 ft 564 kts 40°
2026-04-16 14:06 32.20719 135.71886 37071 ft 563 kts 40°
2026-04-16 14:06 32.25944 135.78796 37078 ft 563 kts 40°
2026-04-16 14:07 32.30371 135.84662 37076 ft 563 kts 40°
2026-04-16 14:07 32.35133 135.90985 37086 ft 563 kts 40°
2026-04-16 14:08 32.40337 135.97906 37081 ft 561 kts 40°
2026-04-16 14:08 32.45559 136.04862 37087 ft 560 kts 40°
2026-04-16 14:09 32.50748 136.11777 37090 ft 560 kts 40°
2026-04-16 14:09 32.55937 136.18707 37088 ft 559 kts 39°
2026-04-16 14:10 32.61118 136.25638 37096 ft 560 kts 39°
2026-04-16 14:10 32.66336 136.32634 37092 ft 559 kts 39°
2026-04-16 14:11 32.71484 136.39549 37097 ft 559 kts 40°
2026-04-16 14:11 32.76635 136.46481 37096 ft 558 kts 39°
2026-04-16 14:12 32.81799 136.53442 37103 ft 558 kts 40°
2026-04-16 14:12 32.86920 136.60361 37105 ft 557 kts 39°
2026-04-16 14:13 32.92081 136.67345 37089 ft 558 kts 40°
2026-04-16 14:13 32.97182 136.74252 37085 ft 556 kts 40°
2026-04-16 14:14 33.02300 136.81197 37096 ft 555 kts 40°
2026-04-16 14:14 33.07379 136.88101 37093 ft 554 kts 40°
2026-04-16 14:15 33.12398 136.94936 37107 ft 554 kts 40°
2026-04-16 14:15 33.17487 137.01878 37102 ft 553 kts 40°
2026-04-16 14:16 33.22564 137.08821 37109 ft 551 kts 40°
2026-04-16 14:16 33.27634 137.15765 37109 ft 552 kts 40°
2026-04-16 14:17 33.32686 137.22700 37117 ft 553 kts 40°
2026-04-16 14:17 33.37732 137.29643 37114 ft 551 kts 40°
2026-04-16 14:18 33.42771 137.36589 37124 ft 551 kts 40°
2026-04-16 14:18 33.47787 137.43517 37124 ft 550 kts 39°
2026-04-16 14:19 33.52843 137.50510 37133 ft 551 kts 39°
2026-04-16 14:19 33.57838 137.57436 37123 ft 550 kts 39°
2026-04-16 14:20 33.62429 137.64891 37126 ft 564 kts 51°
2026-04-16 14:20 33.66273 137.73190 37118 ft 568 kts 53°
2026-04-16 14:21 33.70054 137.81462 37105 ft 567 kts 53°
2026-04-16 14:21 33.71932 137.85593 37091 ft 547 kts 53°
2026-04-16 14:21 33.73706 137.89505 37101 ft 528 kts 52°
2026-04-16 14:22 33.75463 137.93375 37071 ft 511 kts 52°
2026-04-16 14:22 33.77144 137.97076 37084 ft 495 kts 52°
2026-04-16 14:22 33.80398 138.04227 37092 ft 483 kts 52°
2026-04-16 14:23 33.83650 138.11368 37085 ft 488 kts 52°
2026-04-16 14:23 33.86941 138.18623 37079 ft 490 kts 52°
2026-04-16 14:24 33.90192 138.25816 37071 ft 487 kts 52°
2026-04-16 14:24 33.93447 138.33066 37092 ft 492 kts 52°
2026-04-16 14:25 33.96649 138.40268 37084 ft 488 kts 52°
2026-04-16 14:25 33.99865 138.47507 37093 ft 487 kts 52°
2026-04-16 14:26 34.03045 138.54678 37101 ft 488 kts 52°
2026-04-16 14:26 34.06245 138.61906 37103 ft 489 kts 52°
2026-04-16 14:27 34.09444 138.69154 37093 ft 488 kts 52°
2026-04-16 14:27 34.12280 138.75588 37103 ft 490 kts 52°
2026-04-16 14:28 34.15593 138.83121 37094 ft 488 kts 53°
2026-04-16 14:28 34.18722 138.90248 37100 ft 488 kts 53°
2026-04-16 14:29 34.21855 138.97398 37112 ft 489 kts 53°
2026-04-16 14:29 34.25008 139.04613 37103 ft 488 kts 53°
2026-04-16 14:30 34.28166 139.11868 37113 ft 491 kts 55°
2026-04-16 14:30 34.30899 139.19525 37118 ft 495 kts 58°
2026-04-16 14:31 34.32206 139.23338 36823 ft 487 kts 58°
2026-04-16 14:31 34.33521 139.27162 36144 ft 489 kts 58°
2026-04-16 14:31 34.34850 139.31015 35228 ft 497 kts 58°
2026-04-16 14:31 34.36170 139.34845 34318 ft 504 kts 58°
2026-04-16 14:32 34.37517 139.38760 33340 ft 511 kts 58°
2026-04-16 14:32 34.38906 139.42806 32402 ft 516 kts 58°
2026-04-16 14:32 34.40284 139.46823 31439 ft 521 kts 59°
2026-04-16 14:32 34.41639 139.50781 30673 ft 522 kts 60°
2026-04-16 14:33 34.43039 139.54889 30121 ft 516 kts 60°
2026-04-16 14:33 34.44400 139.58885 29503 ft 511 kts 60°
2026-04-16 14:33 34.45755 139.62865 28863 ft 507 kts 59°
2026-04-16 14:33 34.47243 139.66531 28246 ft 493 kts 52°
2026-04-16 14:34 34.49175 139.69920 27627 ft 476 kts 43°
2026-04-16 14:34 34.51409 139.72777 27060 ft 460 kts 34°
2026-04-16 14:34 34.53869 139.75108 26488 ft 445 kts 26°
2026-04-16 14:34 34.56461 139.77148 25932 ft 437 kts 25°
2026-04-16 14:35 34.59003 139.79100 25383 ft 430 kts 25°
2026-04-16 14:35 34.61517 139.81010 24835 ft 424 kts 24°
2026-04-16 14:35 34.63984 139.82869 24302 ft 418 kts 25°
2026-04-16 14:35 34.66453 139.84718 23771 ft 412 kts 24°
2026-04-16 14:36 34.68870 139.86522 23245 ft 406 kts 24°
2026-04-16 14:36 34.71262 139.88301 22706 ft 401 kts 24°
2026-04-16 14:36 34.73621 139.90051 22177 ft 395 kts 25°
2026-04-16 14:36 34.75949 139.91795 21663 ft 392 kts 27°
2026-04-16 14:37 34.78059 139.93881 21148 ft 396 kts 38°
2026-04-16 14:37 34.79818 139.96440 20609 ft 400 kts 49°
2026-04-16 14:37 34.81185 139.99437 20077 ft 405 kts 59°
2026-04-16 14:37 34.82058 140.02684 19526 ft 411 kts 70°
2026-04-16 14:38 34.82502 140.06091 18935 ft 411 kts 75°
2026-04-16 14:38 34.82971 140.09497 18385 ft 400 kts 68°
2026-04-16 14:38 34.83874 140.12624 17843 ft 386 kts 58°
2026-04-16 14:38 34.85084 140.15457 17323 ft 377 kts 54°
2026-04-16 14:39 34.86335 140.18234 16801 ft 372 kts 54°
2026-04-16 14:39 34.87570 140.20961 16177 ft 361 kts 55°
2026-04-16 14:39 34.88819 140.23468 15742 ft 335 kts 46°
2026-04-16 14:39 34.90397 140.25385 15328 ft 309 kts 35°
2026-04-16 14:40 34.92056 140.26959 14992 ft 296 kts 34°
2026-04-16 14:40 34.93692 140.28462 14536 ft 294 kts 33°
2026-04-16 14:40 34.95313 140.29919 14093 ft 292 kts 33°
2026-04-16 14:40 34.97083 140.31090 13662 ft 287 kts 20°
2026-04-16 14:41 34.99038 140.31569 13132 ft 290 kts
2026-04-16 14:41 35.01064 140.31297 12646 ft 295 kts 349°
2026-04-16 14:41 35.02963 140.30258 12189 ft 303 kts 333°
2026-04-16 14:41 35.04523 140.28531 11750 ft 314 kts 316°
2026-04-16 14:42 35.05622 140.26201 11291 ft 324 kts 301°
2026-04-16 14:42 35.06468 140.23645 10836 ft 325 kts 299°
2026-04-16 14:42 35.07301 140.21066 10380 ft 323 kts 299°
2026-04-16 14:42 35.08121 140.18568 10255 ft 311 kts 300°
2026-04-16 14:43 35.08912 140.16187 10187 ft 298 kts 300°
2026-04-16 14:43 35.09683 140.13881 10080 ft 288 kts 301°
2026-04-16 14:43 35.10424 140.11667 9953 ft 280 kts 301°
2026-04-16 14:43 35.11173 140.09442 9625 ft 281 kts 300°
2026-04-16 14:44 35.11910 140.07250 9266 ft 282 kts 300°
2026-04-16 14:44 35.12656 140.05019 8920 ft 283 kts 300°
2026-04-16 14:44 35.13398 140.02799 8594 ft 283 kts 300°
2026-04-16 14:44 35.14196 140.00633 8266 ft 276 kts 310°
2026-04-16 14:45 35.15512 139.99045 7944 ft 258 kts 336°
2026-04-16 14:45 35.17154 139.98364 7673 ft 243 kts 357°
2026-04-16 14:45 35.18824 139.98195 7423 ft 238 kts
2026-04-16 14:45 35.20474 139.98166 7174 ft 235 kts
2026-04-16 14:46 35.22086 139.98204 6930 ft 233 kts
2026-04-16 14:46 35.23698 139.98257 6686 ft 230 kts
2026-04-16 14:46 35.25314 139.98233 6437 ft 232 kts 354°
2026-04-16 14:46 35.26830 139.97528 6168 ft 238 kts 339°
2026-04-16 14:47 35.28290 139.96526 5830 ft 242 kts 336°
2026-04-16 14:47 35.29736 139.95491 5446 ft 240 kts 336°
2026-04-16 14:47 35.31157 139.94481 5247 ft 228 kts 336°
2026-04-16 14:47 35.32496 139.93529 4985 ft 223 kts 335°
2026-04-16 14:48 35.33816 139.92532 4686 ft 219 kts 335°
2026-04-16 14:48 35.35110 139.91583 4368 ft 211 kts 336°
2026-04-16 14:48 35.36348 139.90712 4096 ft 200 kts 337°
2026-04-16 14:48 35.37546 139.89888 3831 ft 191 kts 338°
2026-04-16 14:49 35.38681 139.89110 3580 ft 184 kts 338°
2026-04-16 14:49 35.39772 139.88348 3350 ft 176 kts 337°
2026-04-16 14:49 35.40825 139.87610 3122 ft 172 kts 338°
2026-04-16 14:49 35.41843 139.86894 2878 ft 170 kts 338°
2026-04-16 14:50 35.42859 139.86179 2637 ft 168 kts 338°
2026-04-16 14:50 35.43866 139.85471 2398 ft 167 kts 338°
2026-04-16 14:50 35.44874 139.84760 2157 ft 166 kts 338°
2026-04-16 14:50 35.45849 139.84073 1896 ft 165 kts 338°
2026-04-16 14:51 35.46819 139.83388 1675 ft 159 kts 338°
2026-04-16 14:51 35.47760 139.82726 1457 ft 155 kts 338°
2026-04-16 14:51 35.48677 139.82077 1235 ft 148 kts 338°
2026-04-16 14:51 35.49508 139.81493 1059 ft 136 kts 338°
2026-04-16 14:53 35.54738 139.77799 35 ft 42 kts 329°
2026-04-16 14:53 35.54924 139.77681 35 ft 31 kts 339°
2026-04-16 14:54 35.55130 139.77632 35 ft 29 kts